Port Hardy, British Columbia

10:21 AM PDT on August 28, 2016 (GMT -0700)
Port Hardy

Weather History for CYZT - January, 2013

Change the Weather History Date:

Monday, January 21, 2013

  Actual Average Record
Temperature  
Mean Temperature 37 °F -  
Max Temperature 48 °F 44 °F 50 °F (2005)
Min Temperature 26 °F 34 °F 26 °F (2008)
Degree Days  
Heating Degree Days 28    
Moisture  
Dew Point 30 °F    
Average Humidity 83    
Maximum Humidity 93    
Minimum Humidity 62    
Precipitation  
Precipitation 0.00 in 0.25 in - ()
Sea Level Pressure  
Sea Level Pressure 30.12 in    
Wind  
Wind Speed 3 mph ()    
Max Wind Speed 9 mph    
Max Gust Speed -    
Visibility 17.3 miles    
Events      
Averages and records for this station are not official NWS values.
T = Trace of Precipitation, MM = Missing Value Source: Averaged Metar Reports

Daily Weather History Graph

Daily Weather History Graph

Search for Another Location

Airport or City:

Trip Planner

Search our weather history database for the weather conditions in past years. The results will help you decide how hot, cold, wet, or windy it might be!

Date:

Astronomy

Jan. 21, 2013 Rise Set
Actual Time 8:18 AM PST 5:03 PM PST
Civil Twilight 7:41 AM PST 5:40 PM PST
Nautical Twilight 7:01 AM PST 6:20 PM PST
Astronomical Twilight 6:22 AM PST 6:59 PM PST
Moon 12:45 PM PST (1/21) 3:54 AM PST (1/21)
Length of Visible Light 9h 58m
Length of Day
8h 44m
Waxing Gibbous, 76% of the Moon is Illuminated
Jan 21
Waxing Gibbous
Jan 26
Full
Feb 3
Last Quarter
Feb 9
New
Feb 17
First Quarter

Hourly Weather History & Observations

Time (PST) Temp. Windchill Dew Point Humidity Pressure Visibility Wind Dir Wind Speed Gust Speed Precip Events Conditions
12:00 AM 30.2 °F 26.7 °F 28.4 °F 93% 30.29 in 15.0 mi SSW 3.5 mph - N/A   Clear
1:00 AM 30.2 °F 26.7 °F 28.4 °F 93% 30.27 in 15.0 mi SW 3.5 mph - N/A   Clear
2:00 AM 30.2 °F - 28.4 °F 93% 30.26 in 15.0 mi WSW 2.3 mph - N/A   Clear
3:00 AM 28.4 °F - 26.6 °F 93% 30.24 in 15.0 mi Calm Calm - N/A   Clear
4:00 AM 30 °F - 28 °F 86% 30.22 in 15 mi SW 3.5 mph - -  
4:00 AM 30.2 °F 26.7 °F 28.4 °F 93% 30.22 in 15.0 mi SW 3.5 mph - N/A   Clear
5:00 AM 28.4 °F 24.6 °F 24.8 °F 86% 30.20 in 15.0 mi SW 3.5 mph - N/A   Clear
6:00 AM 30.2 °F - 26.6 °F 86% 30.18 in 15.0 mi Calm Calm - N/A   Clear
7:00 AM 28.4 °F 24.6 °F 24.8 °F 86% 30.16 in 15.0 mi WSW 3.5 mph - N/A   Clear
8:00 AM 30.2 °F - 26.6 °F 86% 30.16 in 20.0 mi Calm Calm - N/A   Partly Cloudy
9:00 AM 28.4 °F 24.6 °F 26.6 °F 93% 30.16 in 20.0 mi WSW 3.5 mph - N/A   Partly Cloudy
10:00 AM 34 °F - 31 °F 82% 30.16 in 19 mi Calm Calm - -   Clear
10:00 AM 33.8 °F - 30.2 °F 87% 30.16 in 20.0 mi Calm Calm - N/A   Partly Cloudy
11:00 AM 39.2 °F - 32.0 °F 75% 30.15 in 20.0 mi Calm Calm - N/A   Partly Cloudy
12:00 PM 42.8 °F 40.1 °F 32.0 °F 66% 30.13 in 20.0 mi SSE 4.6 mph - N/A   Scattered Clouds
1:00 PM 42.8 °F 41.1 °F 35.6 °F 76% 30.10 in 20.0 mi NNE 3.5 mph - N/A   Scattered Clouds
2:00 PM 44.6 °F 43.1 °F 37.4 °F 76% 30.08 in 20.0 mi NNE 3.5 mph - N/A   Mostly Cloudy
3:00 PM 48.2 °F - 35.6 °F 62% 30.06 in 20.0 mi East 9.2 mph - N/A   Mostly Cloudy
4:00 PM 46 °F - 37 °F 62% 30.05 in 19 mi ESE 6.9 mph - -   Clear
4:00 PM 46.4 °F 42.9 °F 37.4 °F 71% 30.05 in 20.0 mi ESE 6.9 mph - N/A   Mostly Cloudy
5:00 PM 39.2 °F - 33.8 °F 81% 30.04 in 20.0 mi Calm Calm - N/A   Mostly Cloudy
6:00 PM 35.6 °F 30.7 °F 32.0 °F 87% 30.04 in 20.0 mi WSW 5.8 mph - N/A   Mostly Cloudy
7:00 PM 33.8 °F 28.6 °F 30.2 °F 87% 30.01 in 15.0 mi SW 5.8 mph - N/A   Scattered Clouds
8:00 PM 33.8 °F 28.6 °F 30.2 °F 87% 30.00 in 15.0 mi South 5.8 mph - N/A   Scattered Clouds
9:00 PM 32.0 °F 26.4 °F 30.2 °F 93% 30.00 in 15.0 mi SW 5.8 mph - N/A   Scattered Clouds
10:00 PM 35 °F - 31 °F 78% 29.98 in 15 mi SSE 3.5 mph - -   Clear
10:00 PM 35.6 °F 30.7 °F 30.2 °F 81% 29.98 in 15.0 mi SSE 5.8 mph - N/A   Scattered Clouds
11:00 PM 33.8 °F 29.6 °F 30.2 °F 87% 29.97 in 15.0 mi South 4.6 mph - N/A   Scattered Clouds